Content
SEND FEEDBACK

Daily
Averages
Monthly
Summary
United States of America

PIKEVILLE, TENNESSEE


Home > North America > United States > Tennessee
Elevation: 935 feet     Latitude: 35 37N     Longitude: 085 12W

WEATHER
 
SELECT A DAY
Number of Records: 221,945;   Date Range: 1/1/95 - 12/17/14
 
SHARE

PRINT THIS DATA

[ ← Previous Day ]
WEATHER ALMANAC - JANUARY 23, 2013
[ Next Day → ]
[ °C ]   °F
Weather ElementAverageHighLow
Temperature30.1 °F44.1 °F (2:53 pm) (12:53 pm)
Dewpoint15 °F30.9 °F (10:53 pm) (7:00 pm)
Humidity52.9 %67 % (10:53 pm)39 % (11:53 am)
Barometer30.27 in30.37 in (8:53 am)30.15 in (7:53 pm)
Wind Speed4 mph12.7 mph (11:53 am)
Wind Gust17.3 mph (12:53 pm)
Weather ElementAverage
Visibility10 mi
Wind DirectionESE (128 °)

Weather ElementTotal
Precipitation0.01 in
Heating Degree Days43 (Base 65)
Averaged from 20 records on January 23, 2013
WEATHER CONDITIONS BREAKOUT
WIND DIRECTION BREAKOUT
WEATHER BY HOUR - JANUARY 23, 2013
[ °C ]   °F
Local TimeTemperatureDewpointHumidityBarometerVisibilityWind DirectionWind SpeedGust SpeedPrecipitationEventsConditions
1:53 AM21.9 °F3.9 °F46 %30.35 in10.0 miCalmMostly Cloudy
2:53 AM19.9 °F5.0 °F52 %30.34 in10.0 miCalmScattered Clouds
3:53 AM19.0 °F5.0 °F54 %30.35 in10.0 miCalmPartly Cloudy
4:53 AM19.0 °F8.1 °F62 %30.35 in10.0 miCalmMostly Cloudy
5:53 AM21.0 °F9.0 °F60 %30.36 in10.0 miCalmOvercast
6:53 AM18.0 °F8.1 °F65 %30.36 in10.0 miCalmClear
7:53 AM23.0 °F9.0 °F55 %30.36 in10.0 miSouth (180°)3.5 mphClear
8:53 AM27.0 °F9.0 °F47 %30.37 in10.0 miSouth (180°)3.5 mphClear
9:53 AM32.0 °F10.9 °F42 %30.36 in10.0 miCalmClear
10:53 AM35.1 °F12.9 °F40 %30.33 in10.0 miVariable6.9 mphClear
11:53 AM39.0 °F16.0 °F39 %30.28 in10.0 miWest (270°)12.7 mphClear
12:53 PM0.0 °F0.0 °F30.21 inSW (230°)11.5 mph17.3 mphClear
1:53 PM43.0 °F19.9 °F40 %30.22 inVariable5.8 mph17.3 mph0.01 inClear
2:53 PM44.1 °F21.0 °F40 %30.20 in10.0 miWest (260°)5.8 mphClear
4:53 PM42.1 °F23.0 °F47 %30.19 in10.0 miWSW (250°)4.6 mphClear
5:53 PM39.0 °F23.0 °F53 %30.17 in10.0 miSSW (210°)3.5 mphClear
7:53 PM37.0 °F26.1 °F65 %30.15 in10.0 miSW (220°)4.6 mphClear
9:53 PM39.0 °F28.0 °F65 %30.17 in10.0 miWSW (240°)5.8 mphPartly Cloudy
10:53 PM41.0 °F30.9 °F67 %30.16 in10.0 miWest (260°)6.9 mphOvercast
11:53 PM41.0 °F30.9 °F67 %30.15 in10.0 miWest (260°)5.8 mphOvercast
Hourly data recorded from KCSV, located miles away from Pikeville, Tennessee







STORIES FROM OUR PARTNERS